Location: Newark
(48.0000°N, 67.0000°E)
Time: 16:43:49
(UTC+00:00)

N. Korean satellite - Pass Details

Date: 01 February 2020
Orbit: 456 x 506 km, 97.2° (Epoch: 17 February)

Event Time Altitude Azimuth Distance (km) Brightness Sun altitude
Rises 01:07:30 0° 17° (NNE) 2,562 10.4 -19.0°
Reaches altitude 10° 01:09:36 10° 22° (NNE) 1,685 9.5 -18.7°
Maximum altitude 01:13:09 51° 99° (E) 630 7.5 -18.1°
Drops below altitude 10° 01:16:43 10° 177° (S) 1,695 9.4 -17.5°
Sets 01:18:50 0° 182° (S) 2,579 10.3 -17.2°
